TimeEDT,TemperatureF,Dew PointF,Humidity,Sea Level PressureIn,VisibilityMPH,Wind Direction,Wind SpeedMPH,Gust SpeedMPH,PrecipitationIn,Events,Conditions,WindDirDegrees,DateUTC
12:53 AM,73.9,72.0,93,29.99,9.0,SSW,4.6,-,0.01,Rain,Light Rain,200,2013-08-01 04:53:00
1:50 AM,73.4,71.6,94,30.01,10.0,SW,4.6,-,0.00,,Mostly Cloudy,220,2013-08-01 05:50:00
1:53 AM,73.9,72.0,93,29.99,10.0,SW,3.5,-,0.00,,Mostly Cloudy,220,2013-08-01 05:53:00
2:27 AM,73.4,71.6,94,30.01,9.0,SW,5.8,-,N/A,,Overcast,220,2013-08-01 06:27:00
2:43 AM,73.4,71.6,94,30.00,8.0,SW,4.6,-,N/A,,Overcast,220,2013-08-01 06:43:00
2:53 AM,73.0,71.1,93,29.98,7.0,SW,3.5,-,N/A,,Overcast,230,2013-08-01 06:53:00
3:53 AM,73.0,71.1,93,29.98,6.0,SW,3.5,-,N/A,,Overcast,220,2013-08-01 07:53:00
4:15 AM,73.4,71.6,94,29.99,6.0,SSW,4.6,-,N/A,,Overcast,200,2013-08-01 08:15:00
4:53 AM,73.0,71.1,93,29.96,6.0,SW,3.5,-,N/A,,Mostly Cloudy,230,2013-08-01 08:53:00
5:02 AM,73.4,71.6,94,29.98,6.0,SSW,4.6,-,N/A,,Scattered Clouds,210,2013-08-01 09:02:00
5:15 AM,73.4,71.6,94,29.98,7.0,SSW,3.5,-,N/A,,Partly Cloudy,210,2013-08-01 09:15:00
5:53 AM,73.0,71.1,93,29.96,8.0,WSW,4.6,-,N/A,,Mostly Cloudy,250,2013-08-01 09:53:00
6:53 AM,72.0,70.0,93,29.96,6.0,SSW,3.5,-,N/A,,Partly Cloudy,200,2013-08-01 10:53:00
7:37 AM,71.6,71.6,100,30.00,5.0,SW,4.6,-,N/A,,Mostly Cloudy,230,2013-08-01 11:37:00
7:53 AM,73.0,71.1,93,29.97,5.0,SW,6.9,-,N/A,,Mostly Cloudy,220,2013-08-01 11:53:00
7:58 AM,73.4,71.6,94,29.99,5.0,SW,8.1,-,N/A,,Overcast,230,2013-08-01 11:58:00
8:53 AM,73.9,71.1,91,29.98,6.0,Calm,Calm,-,N/A,,Overcast,0,2013-08-01 12:53:00
9:53 AM,75.0,71.1,87,29.99,9.0,Calm,Calm,-,N/A,,Mostly Cloudy,0,2013-08-01 13:53:00
10:00 AM,77.0,71.6,83,30.01,9.0,Calm,Calm,-,N/A,,Overcast,0,2013-08-01 14:00:00
10:05 AM,77.0,71.6,83,30.01,9.0,Calm,Calm,-,N/A,,Overcast,0,2013-08-01 14:05:00
10:53 AM,77.0,70.0,79,29.99,10.0,West,5.8,-,N/A,,Overcast,260,2013-08-01 14:53:00
11:00 AM,78.8,69.8,74,30.01,10.0,WNW,8.1,-,N/A,,Mostly Cloudy,290,2013-08-01 15:00:00
11:53 AM,78.1,70.0,76,29.98,10.0,Calm,Calm,-,N/A,,Overcast,0,2013-08-01 15:53:00
12:53 PM,80.1,71.1,74,29.97,10.0,WNW,6.9,-,N/A,,Overcast,300,2013-08-01 16:53:00
1:53 PM,82.0,72.0,71,29.96,10.0,NW,3.5,-,N/A,,Overcast,310,2013-08-01 17:53:00
2:00 PM,82.4,71.6,70,29.99,10.0,North,4.6,-,N/A,,Overcast,350,2013-08-01 18:00:00
2:53 PM,82.9,72.0,69,29.94,10.0,NW,5.8,-,N/A,,Mostly Cloudy,320,2013-08-01 18:53:00
3:09 PM,84.2,71.6,66,29.97,10.0,Variable,3.5,-,N/A,,Mostly Cloudy,0,2013-08-01 19:09:00
3:26 PM,84.2,71.6,66,29.96,10.0,NNW,5.8,-,N/A,,Scattered Clouds,330,2013-08-01 19:26:00
3:53 PM,86.0,72.0,63,29.93,10.0,NW,5.8,-,N/A,,Scattered Clouds,320,2013-08-01 19:53:00
4:53 PM,86.0,70.0,59,29.91,10.0,Calm,Calm,-,N/A,,Scattered Clouds,0,2013-08-01 20:53:00
5:53 PM,84.9,70.0,61,29.90,10.0,WNW,5.8,-,N/A,,Scattered Clouds,290,2013-08-01 21:53:00
6:14 PM,78.8,71.6,78,29.96,1.8,NNW,19.6,25.3,0.07,Rain,Rain,330,2013-08-01 22:14:00
6:18 PM,75.2,71.6,89,29.97,0.8,North,8.1,25.3,0.13,Rain,Heavy Rain,350,2013-08-01 22:18:00
6:22 PM,75.2,71.6,89,29.96,1.0,Variable,3.5,25.3,0.13,Rain,Light Rain,0,2013-08-01 22:22:00
6:32 PM,77.0,71.6,83,29.95,7.0,South,3.5,-,0.14,Rain,Light Rain,180,2013-08-01 22:32:00
6:53 PM,77.0,71.1,82,29.93,10.0,Calm,Calm,-,0.14,,Overcast,0,2013-08-01 22:53:00
7:53 PM,78.1,73.9,87,29.93,10.0,Calm,Calm,-,N/A,,Mostly Cloudy,0,2013-08-01 23:53:00
8:53 PM,77.0,73.9,90,29.94,8.0,Calm,Calm,-,N/A,,Clear,0,2013-08-02 00:53:00
9:53 PM,75.9,73.0,91,29.95,9.0,Calm,Calm,-,N/A,,Clear,0,2013-08-02 01:53:00
10:53 PM,75.0,71.1,87,29.96,10.0,Calm,Calm,-,N/A,,Clear,0,2013-08-02 02:53:00
11:53 PM,73.0,70.0,90,29.95,9.0,Calm,Calm,-,N/A,,Clear,0,2013-08-02 03:53:00